Regional Weather Roundup
Issued by NWS Jackson, KY

Home | Current Version | Previous Version | Graphics & Text | Print | Product List | Glossary On
Versions: 1 2 3 4 5 6 7 8 9 10 11 12 13 14 15 16 17 18 19 20 21 22 23 24 25 26 27 28 29 30 31 32 33 34 35 36 37 38 39 40 41 42 43 44 45 46 47 48 49 50
000
ASUS43 KJKL 161211
RWRJKL

EAST KENTUCKY HOURLY WEATHER ROUNDUP
NATIONAL WEATHER SERVICE JACKSON KY
800 AM EDT TUE SEP 16 2014

NOTE: "FAIR" INDICATES FEW OR NO CLOUDS BELOW 12,000 FEET WITH
NO SIGNIFICANT WEATHER AND/OR OBSTRUCTIONS TO VISIBILITY.

* THESE REPORTS ARE NOT UNDER NWS QUALITY CONTROL AND MAY NOT
  REPORT WEATHER SUCH AS PRECIPITATION AND FOG.

KYZ079-080-083-085-087-088-110-112-115-119-120-161300
...EASTERN KENTUCKY...

CITY           SKY/WX    TMP DP  RH WIND       PRES   REMARKS
JACKSON        FOG       62  61  96 CALM      30.12R VSB 1/2
6HR MIN TEMP:  62; 6HR MAX TEMP:  63; 6HR PCP:  0.04;

LONDON         CLOUDY    66  61  84 W3        30.12R
6HR MIN TEMP:  63; 6HR MAX TEMP:  67;

MONTICELLO*    CLOUDY    66  65  97 CALM      30.14R
6HR MIN TEMP:  64; 6HR MAX TEMP:  67;

WILLIAMSBURG*  CLOUDY    64  64 100 W3        30.13R
MIDDLESBORO*   CLOUDY    64  63  97 CALM      30.12S
6HR MIN TEMP:  62; 6HR MAX TEMP:  64;

HARLAN APT*    CLOUDY    63  63 100 MISG      30.13R
HAZARD APT*    DRIZZLE   63  63 100 CALM      30.12R
BLACK MTN*       N/A     57  57 100 S3          N/A
PIKEVILLE APT* DRIZZLE   61  59  94 CALM      30.11S
BIG SANDY*     FOG       61  61  99 CALM      30.12R VSB 3/4
6HR MIN TEMP:  61; 6HR MAX TEMP:  63;

MOREHEAD APT*  LGT RAIN  61  59  94 N5        30.14R
$$

KYZ035-036-041-042-044-050-067-078-099-161300
...CENTRAL KENTUCKY...

CITY           SKY/WX    TMP DP  RH WIND       PRES   REMARKS
MT STERLING*   CLOUDY    59  59 100 N5        30.13R FOG
FLEMING/MASON* CLOUDY    57  57 100 CALM      30.14R FOG
DANVILLE*      CLOUDY    63  61  94 NW6       30.12R
RICHMOND*      CLOUDY    63  61  94 CALM      30.10S
LEXINGTON      CLOUDY    62  59  90 NE12      30.12R FOG
6HR MIN TEMP:  62; 6HR MAX TEMP:  65; 6HR PCP: TRACE;

FRANKFORT      CLOUDY    60  58  92 NE6       30.12R
6HR MIN TEMP:  60; 6HR MAX TEMP:  62; 6HR PCP: TRACE;

$$

KYZ091>093-OHZ055-061-077-WVZ005-015-034-035-042-161300
...SOUTHERN OHIO/WEST VIRGINIA...

CITY           SKY/WX    TMP DP  RH WIND       PRES   REMARKS
COVINGTON      CLOUDY    58  55  90 N8        30.14R
COLUMBUS       CLOUDY    56  49  77 N7        30.14R
DAYTON         CLOUDY    54  51  90 N9        30.18R
WILMINGTON     CLOUDY    55  52  89 N12       30.15R
HUNTINGTON     LGT RAIN  59  57  93 N3        30.11R FOG
CHARLESTON     CLOUDY    60  59  96 CALM      30.10S
PINEVILLE*     RAIN      62  62 100 MISG      30.16S
BECKLEY        CLOUDY    59  56  89 N5        30.13S
BLUEFIELD      CLOUDY    61  58  90 CALM      30.14F
$$

VAZ002-007-008-TNZ017-027-036-066-071-161300
...SOUTHWEST VIRGINIA/EAST TENNESSEE...

CITY           SKY/WX    TMP DP  RH WIND       PRES   REMARKS
WISE*          CLOUDY    63  61  94 CALM      30.16S
JONESVILLE*    CLOUDY    64  64 100 CALM      30.14R FOG
ABINGDON*      CLOUDY    66  66 100 SW7       30.13S FOG
BRISTOL        CLOUDY    66  63  90 CALM      30.12S FOG
KNOXVILLE      CLOUDY    70  69  97 SW8       30.10S FOG
OAK RIDGE      CLOUDY    70  67  90 CALM      30.12S
CROSSVILLE     CLOUDY    67  61  81 W3        30.16R
NASHVILLE      MOCLDY    69  64  84 NW3       30.12R
$$

...KEY TO REMARKS...
VSB - VISIBILITY IN MILES
WCI - WIND CHILL INDEX
HX  - HEAT INDEX

$$



USA.gov is the U.S. government's official web portal to all federal, state and local government web resources and services.